This is the latest recevied weather packets stored in our database for station/object KC3AWA. If no packets are shown the sender has not sent any weather packets the latest 10 day(s).
| Time | Temp. | Humidity | Pressure | Rain* | Wind** | Luminosity | Snow |
|---|---|---|---|---|---|---|---|
| 1778034555 | 10° C | 97% | 1009.6 hPa | 1.27 mm | - | 0 W/m² | - |
| 1778034253 | 10° C | 97% | 1009.8 hPa | 1.27 mm | - | 0 W/m² | - |
| 1778033950 | 10° C | 97% | 1009.7 hPa | 0 mm | - | 0 W/m² | - |
| 1778033647 | 10° C | 97% | 1009.7 hPa | 1.78 mm | - | 0 W/m² | - |
| 1778033344 | 10° C | 96% | 1010 hPa | 4.83 mm | - | 0 W/m² | - |
| 1778033042 | 10° C | 96% | 1009.8 hPa | 7.11 mm | - | 0 W/m² | - |
| 1778032739 | 10° C | 96% | 1009.9 hPa | 11.94 mm | - | 0 W/m² | - |
| 1778032436 | 10.56° C | 96% | 1010 hPa | 8.89 mm | - | 0 W/m² | - |
| 1778032133 | 10.56° C | 96% | 1010.1 hPa | 4.83 mm | - | 0 W/m² | - |
| 1778031830 | 10.56° C | 96% | 1009.8 hPa | 1.78 mm | - | 0 W/m² | - |
| 1778031527 | 10.56° C | 96% | 1009.6 hPa | 4.32 mm | - | 0 W/m² | - |
| 1778031224 | 10.56° C | 95% | 1009.6 hPa | 13.72 mm | - | 0 W/m² | - |
| 1778030920 | 11.11° C | 95% | 1009.9 hPa | 10.67 mm | - | 0 W/m² | - |
| 1778030618 | 12.22° C | 95% | 1010.2 hPa | 6.1 mm | - | 0 W/m² | - |
| 1778030315 | 13.33° C | 95% | 1009.6 hPa | 4.83 mm | - | 0 W/m² | - |
| 1778030011 | 13.33° C | 96% | 1009.5 hPa | 1.27 mm | - | 0 W/m² | - |
| 1778029709 | 13.33° C | 96% | 1009.1 hPa | 1.27 mm | - | 0 W/m² | - |
| 1778029407 | 13.33° C | 96% | 1008.9 hPa | 0 mm | - | 0 W/m² | - |
| 1778029103 | 13.33° C | 96% | 1008.8 hPa | 0 mm | - | 0 W/m² | - |
| 1778028800 | 13.33° C | 96% | 1008.8 hPa | 0 mm | - | 0 W/m² | - |
| 1778028496 | 13.33° C | 96% | 1008.8 hPa | 0 mm | - | 0 W/m² | - |
| 1778028194 | 13.33° C | 95% | 1008.4 hPa | 0 mm | - | 0 W/m² | - |
| 1778027889 | 13.33° C | 95% | 1008.9 hPa | 0 mm | - | 0 W/m² | - |
| 1778027587 | 13.33° C | 95% | 1008.5 hPa | 0 mm | - | 0 W/m² | - |
| 1778027282 | 13.33° C | 95% | 1008.5 hPa | 1.78 mm | - | 0 W/m² | - |
* Rain latest hour (hover to see other rain measurements)
** Current wind speed in m/s (hover to see current wind gust speed)